Meath Environmental Platform

Observations for Trim Patrick St

Time AQI Temp °C Hum % Pres Pa CO μg/m³ H₂S μg/m³ NO μg/m³ NO₂ μg/m³ O₃ μg/m³ SO₂ μg/m³ PM1 μg/m³ PM2.5 μg/m³ PM10 μg/m³
Thursday 27 August 2026
00:56 3 15.6 86 38,460 0.18 2.42 1.85 16.93 25.47 0 21.72 31.65 34.74
00:55 3 15.6 86 38,460 0.17 2.08 1.71 16.33 33.83 0 20.86 31.67 32.17
00:54 3 15.6 86 38,460 0.18 1.9 1.77 16.67 29.78 0 21.72 33.04 34.77
00:53 3 15.6 86 38,460 0.17 1.53 1.71 16.89 27.48 0 21.72 31.67 34.12
00:52 3 15.6 86 38,460 0.18 1.19 1.77 15.07 31.94 0 22.57 32.36 34.12
00:51 3 15.6 86 38,460 0.17 2.18 1.67 16.67 27.78 0 20.86 31.67 32.17
00:50 3 15.6 86 38,460 0.18 1.74 1.62 15.97 28.1 0 22.57 31.67 32.82
00:49 3 15.6 86 38,460 0.17 3.36 1.48 16.67 29.76 0 20.86 32.36 33.47
00:48 3 15.7 86 38,460 0.17 3.04 1.64 22.52 27.58 0 23.43 33.04 36.35
00:47 3 15.6 86 38,460 0.18 2.83 1.83 18.8 30.23 0 20.86 32.37 33.51
00:46 3 15.7 86 38,460 0.16 2.08 1.7 17.09 28.8 0 20 30.31 33.34
00:45 3 15.7 86 38,460 0.17 1.74 1.58 16.41 29.64 0 20.86 31.01 32.24
00:44 3 15.7 86 38,460 0.17 2.52 1.78 15.58 34.23 0 21.72 31.01 31.59
00:43 3 15.7 86 38,460 0.17 3.33 1.81 20.86 25.52 0 22.57 31.02 31.63
00:42 3 15.7 86 38,460 0.17 1.61 1.72 16.41 25.71 0 21.72 32.38 35.62
00:41 3 15.7 86 38,460 0.17 2.1 1.91 15.71 25.95 0 22.57 33.09 34.23
00:40 3 15.7 85 38,460 0.18 2.65 1.95 16.19 26.71 0 21.72 32.41 32.96
00:38 3 15.8 85 38,460 0.17 4.11 1.89 19.13 30.48 0 24.29 33.84 37
00:37 3 15.8 85 38,460 0.17 4.92 1.79 23.76 27.39 0 21.72 31.74 34.31
00:36 3 15.8 85 38,460 0.17 4.27 1.72 25.14 24.84 0 22.57 33.84 36.34